{"data":{"norad_id":63693,"epoch":"2026-05-25T03:44:53.621088Z","epoch_age_seconds":59046,"freshness":"FRESH","line1":"1 63693U 25086G   26145.15617617  .00000030  00000+0  36520-4 0  9992","line2":"2 63693  86.5063 320.9611 0001307  73.5288 286.5989 13.24406707 51819","mean_motion":13.24406707,"eccentricity":0.0001307,"inclination_deg":86.5063,"raan_deg":320.9611,"arg_perigee_deg":73.5288,"mean_anomaly_deg":286.5989,"bstar":3.652e-5,"rev_number":5181,"period_min":108.72793020369,"perigee_km":1166.9484223805,"apogee_km":1168.9209655213,"semimajor_km":7546.0716939509,"source":"CELESTRAK","updated_at":"2026-05-25T13:38:03.891613Z"}}